COSMOS 2520

Last updated on Sat Mar 14 2026 00:02:56 GMT+0000 (Coordinated Universal Time)

1 42907U 17046A 26072.57908560 .00000137 00000+0 00000+0 0 9996 2 42907 0.0258 111.2217 0000157 352.5754 320.8556 1.00273443 31432
UTC large
Height (km)
Speed (km/s)
/
Latitude / Longitude
Inclination (degrees)
Orbital Period (minutes)
Azimuth
Elevation
Range (km)
Doppler Factor

Next 0 passes for location: London (51.5072 / 0.1276)

Sorry there are no passes over London.